Search for airport 
image banner adimage banner ad
image banner ad

DABC - Constantine / Mohamed Boudiaf

Located in Constantine, Algeria

ICAO - DABC, IATA - CZL

Data provided by Airmate  

General information

Coordinates: N36°17'7" E6°37'9"
Elevation is 2316 feet MSL.
 
View others Airports in Constantine Province

Operational data

Open for public use
Current time UTC:
Current local time:
Weather
METAR: DABC 290100Z 18002KT CAVOK 11/08 Q1021
TAF: TAF DABC 282300Z 2900/2924 16006KT CAVOK BECMG 2910/2912 26010KT PROB30 TEMPO 2915/2920 FEW026TCU BECMG 2916/2918 19008KT
View NOTAMs / SUP AIP / TFR affecting this airport [VIEW]
Communications frequencies: [VIEW]

Runways:

RWY identifierQFULength (ft)Width (ft)SurfaceLDA (ft)
16159°9843148
34339°9843148
13136°7874148
31316°7874148

Airport contact information

Address: Constantine Algeria

Satellite view of DABC